TimeCST,TemperatureF,Dew PointF,Humidity,Sea Level PressureIn,VisibilityMPH,Wind Direction,Wind SpeedMPH,Gust SpeedMPH,PrecipitationIn,Events,Conditions,WindDirDegrees,DateUTC
12:15 AM,30.2,19.4,64,30.26,10.0,NNW,5.8,-,N/A,,Clear,340,2013-01-20 06:15:00
12:35 AM,30.2,21.2,69,30.25,10.0,North,5.8,-,N/A,,Clear,350,2013-01-20 06:35:00
12:55 AM,30.2,21.2,69,30.25,10.0,SW,3.5,-,N/A,,Clear,220,2013-01-20 06:55:00
1:15 AM,30.2,19.4,64,30.24,10.0,NW,4.6,-,N/A,,Clear,310,2013-01-20 07:15:00
1:35 AM,32.0,21.2,64,30.23,10.0,NNW,4.6,-,N/A,,Clear,330,2013-01-20 07:35:00
2:15 AM,28.4,19.4,69,30.24,10.0,WNW,4.6,-,N/A,,Clear,300,2013-01-20 08:15:00
2:35 AM,26.6,19.4,74,30.24,10.0,WNW,4.6,-,N/A,,Clear,300,2013-01-20 08:35:00
2:55 AM,28.4,19.4,69,30.24,10.0,NNW,5.8,-,N/A,,Clear,330,2013-01-20 08:55:00
3:15 AM,28.4,19.4,69,30.23,10.0,NNW,3.5,-,N/A,,Clear,330,2013-01-20 09:15:00
3:35 AM,26.6,19.4,74,30.23,10.0,NW,3.5,-,N/A,,Clear,320,2013-01-20 09:35:00
3:55 AM,28.4,21.2,74,30.22,10.0,NNW,3.5,-,N/A,,Clear,340,2013-01-20 09:55:00
4:15 AM,26.6,19.4,74,30.22,10.0,NW,5.8,-,N/A,,Clear,320,2013-01-20 10:15:00
4:35 AM,26.6,19.4,74,30.22,10.0,WNW,5.8,-,N/A,,Clear,300,2013-01-20 10:35:00
4:55 AM,26.6,19.4,74,30.21,10.0,NNW,5.8,-,N/A,,Clear,330,2013-01-20 10:55:00
5:15 AM,28.4,21.2,74,30.21,10.0,NNW,3.5,-,N/A,,Clear,330,2013-01-20 11:15:00
5:35 AM,26.6,19.4,74,30.21,10.0,NW,4.6,-,N/A,,Clear,320,2013-01-20 11:35:00
6:15 AM,26.6,19.4,74,30.21,10.0,NW,6.9,-,N/A,,Clear,310,2013-01-20 12:15:00
6:35 AM,26.6,19.4,74,30.21,10.0,NW,5.8,-,N/A,,Clear,310,2013-01-20 12:35:00
7:15 AM,26.6,19.4,74,30.21,10.0,NW,5.8,-,N/A,,Clear,320,2013-01-20 13:15:00
7:35 AM,26.6,19.4,74,30.21,10.0,WNW,5.8,-,N/A,,Clear,300,2013-01-20 13:35:00
7:55 AM,23.0,17.6,80,30.21,10.0,WNW,5.8,-,N/A,,Clear,300,2013-01-20 13:55:00
8:15 AM,23.0,17.6,80,30.21,10.0,WNW,4.6,-,N/A,,Clear,290,2013-01-20 14:15:00
8:35 AM,28.4,23.0,80,30.20,10.0,West,3.5,-,N/A,,Clear,280,2013-01-20 14:35:00
8:55 AM,30.2,23.0,75,30.20,10.0,Calm,Calm,-,N/A,,Clear,0,2013-01-20 14:55:00
9:15 AM,33.8,26.6,75,30.20,10.0,West,3.5,-,N/A,,Clear,280,2013-01-20 15:15:00
9:35 AM,35.6,26.6,70,30.20,10.0,Calm,Calm,-,N/A,,Clear,0,2013-01-20 15:35:00
9:55 AM,39.2,26.6,61,30.20,10.0,West,8.1,-,N/A,,Clear,260,2013-01-20 15:55:00
10:15 AM,44.6,26.6,49,30.20,10.0,West,6.9,-,N/A,,Clear,270,2013-01-20 16:15:00
10:35 AM,46.4,26.6,46,30.20,10.0,West,5.8,-,N/A,,Clear,260,2013-01-20 16:35:00
10:55 AM,50.0,24.8,37,30.20,10.0,WSW,6.9,-,N/A,,Clear,250,2013-01-20 16:55:00
11:15 AM,51.8,23.0,33,30.20,10.0,WSW,6.9,-,N/A,,Clear,240,2013-01-20 17:15:00
11:35 AM,53.6,24.8,33,30.18,10.0,SW,9.2,-,N/A,,Clear,230,2013-01-20 17:35:00
11:55 AM,53.6,23.0,30,30.17,10.0,SW,11.5,-,N/A,,Clear,230,2013-01-20 17:55:00
12:15 PM,55.4,23.0,29,30.16,10.0,SW,11.5,-,N/A,,Clear,230,2013-01-20 18:15:00
12:35 PM,57.2,23.0,27,30.14,10.0,SW,10.4,-,N/A,,Clear,220,2013-01-20 18:35:00
12:55 PM,59.0,23.0,25,30.12,10.0,WSW,10.4,17.3,N/A,,Clear,240,2013-01-20 18:55:00
1:15 PM,59.0,19.4,22,30.10,10.0,SW,11.5,-,N/A,,Clear,220,2013-01-20 19:15:00
1:35 PM,60.8,19.4,20,30.10,10.0,SW,11.5,-,N/A,,Clear,230,2013-01-20 19:35:00
1:55 PM,60.8,19.4,20,30.09,10.0,SW,11.5,-,N/A,,Clear,230,2013-01-20 19:55:00
2:15 PM,60.8,19.4,20,30.08,10.0,SW,9.2,-,N/A,,Clear,220,2013-01-20 20:15:00
2:35 PM,60.8,21.2,22,30.07,10.0,WSW,9.2,-,N/A,,Clear,240,2013-01-20 20:35:00
2:55 PM,62.6,17.6,18,30.07,10.0,SW,12.7,-,N/A,,Clear,230,2013-01-20 20:55:00
3:15 PM,62.6,14.0,15,30.06,10.0,WSW,8.1,-,N/A,,Clear,240,2013-01-20 21:15:00
3:35 PM,62.6,14.0,15,30.06,10.0,SW,6.9,-,N/A,,Clear,220,2013-01-20 21:35:00
3:55 PM,62.6,14.0,15,30.05,10.0,SW,9.2,-,N/A,,Clear,220,2013-01-20 21:55:00
4:15 PM,62.6,12.2,14,30.05,10.0,SW,8.1,-,N/A,,Clear,220,2013-01-20 22:15:00
4:35 PM,62.6,12.2,14,30.06,10.0,SW,6.9,-,N/A,,Clear,230,2013-01-20 22:35:00
4:55 PM,62.6,14.0,15,30.06,10.0,SW,4.6,-,N/A,,Clear,220,2013-01-20 22:55:00
5:15 PM,62.6,14.0,15,30.06,10.0,SW,4.6,-,N/A,,Clear,220,2013-01-20 23:15:00
5:35 PM,59.0,15.8,19,30.06,10.0,Calm,Calm,-,N/A,,Clear,0,2013-01-20 23:35:00
5:55 PM,55.4,19.4,25,30.06,10.0,Calm,Calm,-,N/A,,Clear,0,2013-01-20 23:55:00
6:15 PM,55.4,17.6,23,30.07,10.0,Calm,Calm,-,N/A,,Clear,0,2013-01-21 00:15:00
6:55 PM,53.6,19.4,26,30.08,10.0,SSE,3.5,-,N/A,,Clear,160,2013-01-21 00:55:00
7:15 PM,50.0,19.4,30,30.09,10.0,Calm,Calm,-,N/A,,Clear,0,2013-01-21 01:15:00
7:35 PM,50.0,17.6,28,30.10,10.0,NNW,6.9,-,N/A,,Clear,340,2013-01-21 01:35:00
7:55 PM,50.0,19.4,30,30.10,10.0,North,15.0,19.6,N/A,,Clear,360,2013-01-21 01:55:00
8:15 PM,50.0,19.4,30,30.10,10.0,NNE,16.1,-,N/A,,Clear,30,2013-01-21 02:15:00
8:35 PM,46.4,19.4,34,30.11,10.0,NNE,13.8,-,N/A,,Clear,30,2013-01-21 02:35:00
8:55 PM,44.6,19.4,37,30.11,10.0,NNE,15.0,-,N/A,,Clear,20,2013-01-21 02:55:00
9:15 PM,42.8,17.6,36,30.12,10.0,NNE,13.8,-,N/A,,Clear,20,2013-01-21 03:15:00
9:35 PM,42.8,19.4,39,30.12,10.0,NNE,12.7,-,N/A,,Clear,30,2013-01-21 03:35:00
9:55 PM,41.0,19.4,42,30.13,10.0,NNE,9.2,-,N/A,,Clear,20,2013-01-21 03:55:00
10:15 PM,41.0,19.4,42,30.13,10.0,NNE,9.2,-,N/A,,Clear,20,2013-01-21 04:15:00
10:35 PM,39.2,21.2,49,30.14,10.0,NNE,8.1,-,N/A,,Clear,20,2013-01-21 04:35:00
10:55 PM,39.2,21.2,49,30.15,10.0,North,9.2,-,N/A,,Clear,10,2013-01-21 04:55:00
11:15 PM,37.4,23.0,56,30.16,10.0,North,8.1,-,N/A,,Clear,10,2013-01-21 05:15:00
11:35 PM,35.6,23.0,60,30.16,10.0,North,10.4,-,N/A,,Clear,10,2013-01-21 05:35:00
11:55 PM,35.6,24.8,65,30.17,10.0,North,10.4,-,N/A,,Clear,10,2013-01-21 05:55:00